Regional Weather Roundup
Issued by NWS Mobile, AL

Home | Current Version | Previous Version | Text Only | Print | Product List | Glossary On
Versions: 1 2 3 4 5 6 7 8 9 10 11 12 13 14 15 16 17 18 19 20 21 22 23 24 25 26 27
000
ASUS44 KMOB 231810
RWRMOB
REGIONAL WEATHER ROUNDUP
NATIONAL WEATHER SERVICE MOBILE AL
100 PM CDT THU OCT 23 2014

NOTE: "FAIR" INDICATES FEW OR NO CLOUDS BELOW 12,000 FEET WITH NO
      SIGNIFICANT WEATHER AND/OR OBSTRUCTIONS TO VISIBILITY.

  * THESE STATIONS ARE PART OF THE UNIVERSITY OF SOUTH ALABAMA
    MESONET AND ARE NOT UNDER NWS OR FAA QUALITY CONTROL.

ALZ061>064-231900-
COASTAL ALABAMA

CITY           SKY/WX    TMP DP  RH WIND       PRES   REMARKS
MOBILE REG APT SUNNY     71  45  39 VRB3      30.10F
6HR MIN TEMP:  47; 6HR MAX TEMP:  71;

BROOKLEY FIELD SUNNY     70  46  42 NE6       30.10F
6HR MIN TEMP:  54; 6HR MAX TEMP:  71;

USA CAMPUS*      N/A     72  46  40 CALM      30.09F
DOG RIVER*     NOT AVBL


CITY           SKY/WX    TMP DP  RH WIND       PRES   REMARKS
MOUNT VERNON*    N/A     70  45  40 CALM      30.10F
SARALAND*      NOT AVBL
BAY MINETTE*   NOT AVBL
LOXLEY*          N/A     72  41  33 CALM      30.08F
ROBERTSDALE*     N/A     72  41  33 N6        30.07F
FAIRHOPE*        N/A     72  41  33 VRB6      30.06F
ELBERTA*         N/A     72  45  37 NE7       30.07F
FOLEY*           N/A     70  43  37 CALM      30.06F
GRAND BAY*       N/A     72  43  35 NW7       30.07F
DAUPHIN ISLND* NOT AVBL
BON SCOUR NWR* NOT AVBL
GULF SHORES    SUNNY     71  48  44 SE5       30.07F

$$

ALZ051>060-231900-
INTERIOR SOUTHWEST AND SOUTH CENTRAL ALABAMA

CITY           SKY/WX    TMP DP  RH WIND       PRES   REMARKS
GREENVILLE     SUNNY     73  44  35 SE3       30.08F
6HR MIN TEMP:  40; 6HR MAX TEMP:  73;

EVERGREEN      SUNNY     72  45  37 E7        30.09F
6HR MIN TEMP:  41; 6HR MAX TEMP:  72;

CASTLEBERRY*   NOT AVBL
ATMORE*          N/A     72  41  33 NE2       30.10F
DIXIE*           N/A     70  46  43 CALM      30.06F
ANDALUSIA/OPP  SUNNY     77  42  28 SE6       30.08F
6HR MIN TEMP:  48; 6HR MAX TEMP:  77;

ANDALUSIA*       N/A     70  43  37 NW3       30.08F
FLORALA APT    SUNNY     73  43  33 CALM      30.09F
6HR MIN TEMP:  41; 6HR MAX TEMP:  73; 6HR PCP: TRACE;

FLORALA*         N/A     70  43  37 CALM      30.06F

$$

FLZ001>006-231900-
WESTERN FLORIDA PANHANDLE

CITY           SKY/WX    TMP DP  RH WIND       PRES   REMARKS
PENSACOLA      SUNNY     72  42  34 VRB7      30.06F
6HR MIN TEMP:  53; 6HR MAX TEMP:  72;

NAS PENSACOLA  MOSUNNY   71  45  39 SE8       30.06F
6HR MIN TEMP:  50; 6HR MAX TEMP:  72;

MILTON         MOSUNNY   72  44  36 CALM      30.07F
6HR MIN TEMP:  46; 6HR MAX TEMP:  72;

WHTNG S FIELD  SUNNY     73  46  38 VRB5      30.07F
6HR MIN TEMP:  50; 6HR MAX TEMP:  74;



CITY           SKY/WX    TMP DP  RH WIND       PRES   REMARKS
WALNUT HILL*   NOT AVBL
JAY*             N/A     70  45  40 NE6       30.08F
DUKE FIELD     MOSUNNY   73  42  33 N6        30.05F
CRESTVIEW      SUNNY     74  46  36 VRB5      30.09F
6HR MIN TEMP:  42; 6HR MAX TEMP:  74;

VALPARAISO     MOSUNNY   72  47  41 SE7       30.06F
6HR MIN TEMP:  48; 6HR MAX TEMP:  72;

DESTIN         SUNNY     73  46  38 N6        30.07F
6HR MIN TEMP:  55; 6HR MAX TEMP:  73;


$$

MSZ076-079-231900-
INTERIOR SOUTHEAST MISSISSIPPI

CITY           SKY/WX    TMP DP  RH WIND       PRES   REMARKS
LEAKESVILLE*     N/A     68  39  34 VRB7      30.10F
AGRICOLA*      NOT AVBL

$$

MARINE OBSERVATIONS

STATION/POSITION TIME  TEMP    WIND        PRES    WAVE
                       AIR SEA DIR/SP/G            HT/PER
                 (UTC) (F)     (DEG/KT/KT) (MB)    (FT/S)
PASCAGOULA       1800   70      30/  2/  5 1018.4F
PETIT BOIS ISLND 1800   68      50/  9/ 11 1019.0F
GRAND BAY        1700   66      60/  7     1020.0S
KATRINA CUT      1700   67      60/ 11     1019.6F
CEDAR POINT      1700   63      40/  9     1019.6F
E DAUPHIN ISLAND 1700   65      30/  8/ 10 1019.4F
MIDDLE BAY LIGHT 1700   68     350/  9     1018.6F
USCG MOBILE BAY  1800   67 73   50/  6/  7 1017.5F
STATE DOCKS      1800   72 74              1018.7F
MEAHER PARK      1700   68      10/  4     1018.6F
WEEKS BAY        1700   71                   N/A
FORT MORGAN      1800   69      50/  8/ 10 1018.0F
12 S ORANGE BCH  1800   69 78   60/ 12/ 16 1017.8F   3/ 6
PENSACOLA BAY    1800   72 73  130/  2/  5 1018.6F
64 S DAUPHIN ISL 1734   72 80   60/ 12/ 16 1018.0F   4/ 6
67 S FORT MORGAN 1700   74                 1017.3F

$$

SELECTED LOCATIONS ACROSS THE REGION

CITY           SKY/WX    TMP DP  RH WIND       PRES   REMARKS
NEW ORLEANS    MOSUNNY   72  47  40 NE13      30.08F
GULFPORT       SUNNY     73  45  36 VRB7      30.08F
PASCAGOULA AP  SUNNY     73  45  36 E6        30.08F
PASCAGOULA*      N/A     72  41  33 N7        30.07F
HATTIESBURG    SUNNY     70  42  36 E8        30.11F
LAUREL         SUNNY     72  43  35 N5        30.12F
MERIDIAN       MOSUNNY   69  37  30 NE3       30.12F
JACKSON        CLOUDY    66  44  45 CALM      30.13F
MONTGOMERY     SUNNY     69  40  34 CALM      30.10F
TROY           SUNNY     71  43  36 SE5       30.10F
KINSTON*       NOT AVBL
GENEVA*          N/A     72  41  33 CALM      30.09F
ASHFORD*         N/A     70  43  37 NW3       30.08F
DOTHAN         SUNNY     71  42  35 CALM      30.10F
PANAMA CITY    SUNNY     74  44  34 VRB5      30.04F

$$




USA.gov is the U.S. government's official web portal to all federal, state and local government web resources and services.